Location: Volkssternwarte_EN
(51.3230°N, 7.4010°E)
Time: 07:18:31
(UTC+01:00)

BlueWalker 3 - Pass Details

Date: 01 December 2022
Orbit: 499 x 517 km, 53.2° (Epoch: 28 January)

Event Time Altitude Azimuth Distance (km) Brightness Sun altitude
Rises 17:11:04 0° 249° (WSW) 2,630 8.1 -6.9°
Reaches altitude 10° 17:13:16 10° 249° (WSW) 1,742 6.4 -7.2°
Maximum altitude 17:17:13 86° 160° (SSE) 520 2.0 -7.8°
Enters shadow 17:21:02 11° 73° (ENE) 1,688 3.9 -8.3°
